Weather reports worldwide

Advertisment
Marina Di Ginosa, Italy (16325): temperature & dewpoint: 05.12.2019 08:00:00 - 11.12.2019 08:00:00 (CET)Marina Di Ginosa, Italy (16325): wind speed: 05.12.2019 08:00:00 - 11.12.2019 08:00:00 (CET)Marina Di Ginosa, Italy (16325): wind direction: 05.12.2019 08:00:00 - 11.12.2019 08:00:00 (CET)Marina Di Ginosa, Italy (16325): reduced air pressure: 05.12.2019 08:00:00 - 11.12.2019 08:00:00 (CET)Marina Di Ginosa, Italy (16325): visibility: 05.12.2019 08:00:00 - 11.12.2019 08:00:00 (CET)
Date & Time tt [°C] td [°C] ff [km/h] ff [kn] dd ppp [hPa] vv [km]
11.12.2019 08:00:00 11,0 7,0 - - - - 10
11.12.2019 07:00:00 11,2 6,9 18 10 NW 1009,0 20
11.12.2019 06:00:00 - - - - - - -
11.12.2019 05:00:00 - - - - - - -
11.12.2019 04:00:00 - - - - - - -
11.12.2019 03:00:00 - - - - - - -
11.12.2019 02:00:00 - - - - - - -
11.12.2019 01:00:00 - - - - - - -
11.12.2019 00:00:00 - - - - - - -
10.12.2019 23:00:00 - - - - - - -
10.12.2019 22:00:00 - - - - - - -
10.12.2019 21:00:00 - - - - - - -
10.12.2019 20:00:00 - - - - - - -
10.12.2019 19:00:00 11,2 8,8 13 7 WNW 1008,4 30
10.12.2019 18:00:00 11,0 9,0 18 10 WNW - 10
10.12.2019 17:00:00 11,0 8,0 13 7 NW - 10
10.12.2019 16:00:00 13,2 8,9 13 7 NW 1007,6 30
10.12.2019 15:00:00 14,0 8,0 16 9 NW - 10
10.12.2019 14:00:00 14,0 9,0 16 9 NW - 10
10.12.2019 13:00:00 14,2 8,4 26 14 NW 1007,4 25
10.12.2019 12:00:00 14,0 9,0 18 10 NW - 10
10.12.2019 11:00:00 13,0 9,0 18 10 NW - 10
10.12.2019 10:00:00 11,6 8,1 15 8 NW 1008,4 10
10.12.2019 09:00:00 10,0 8,0 11 6 WNW - 10
10.12.2019 08:00:00 8,0 7,0 11 6 W - 10
10.12.2019 07:00:00 7,8 6,6 9 5 NW 1007,3 10
10.12.2019 06:00:00 - - - - - - -
10.12.2019 05:00:00 - - - - - - -
10.12.2019 04:00:00 - - - - - - -
10.12.2019 03:00:00 - - - - - - -
10.12.2019 02:00:00 - - - - - - -
10.12.2019 01:00:00 - - - - - - -
10.12.2019 00:00:00 - - - - - - -
09.12.2019 23:00:00 - - - - - - -
09.12.2019 22:00:00 - - - - - - -
09.12.2019 21:00:00 - - - - - - -
09.12.2019 20:00:00 - - - - - - -
09.12.2019 19:00:00 14,6 11,2 13 7 SW 1009,4 18
09.12.2019 18:00:00 15,0 11,0 13 7 SW - 10
09.12.2019 17:00:00 15,0 12,0 9 5 S - 10
09.12.2019 16:00:00 15,2 11,8 11 6 S 1010,3 10
09.12.2019 15:00:00 16,0 12,0 11 6 S - 10
09.12.2019 14:00:00 16,0 12,0 9 5 S - 10
09.12.2019 13:00:00 15,2 11,4 5 3 SSE 1012,4 15
09.12.2019 12:00:00 13,0 12,0 5 3 S - 10
09.12.2019 11:00:00 12,0 11,0 4 2 - - 10
09.12.2019 10:00:00 11,8 10,4 4 2 N 1014,4 0,3
09.12.2019 09:00:00 11,0 9,0 11 6 W - 0,3
09.12.2019 08:00:00 9,0 7,0 9 5 WNW - 0,9
09.12.2019 07:00:00 9,0 7,4 11 6 WNW 1015,3 0,2
09.12.2019 06:00:00 - - - - - - -
09.12.2019 05:00:00 - - - - - - -
09.12.2019 04:00:00 - - - - - - -
09.12.2019 03:00:00 - - - - - - -
09.12.2019 02:00:00 - - - - - - -
09.12.2019 01:00:00 - - - - - - -
09.12.2019 00:00:00 - - - - - - -
08.12.2019 23:00:00 - - - - - - -
08.12.2019 22:00:00 - - - - - - -
08.12.2019 21:00:00 - - - - - - -
08.12.2019 20:00:00 - - - - - - -
08.12.2019 19:00:00 11,6 10,0 9 5 NNE 1019,4 10
08.12.2019 18:00:00 13,0 11,0 5 3 SW - 10
08.12.2019 17:00:00 14,0 12,0 11 6 S - 10
08.12.2019 16:00:00 16,0 12,0 11 6 SSE 1019,4 30
08.12.2019 15:00:00 17,0 12,0 13 7 ESE - 10
08.12.2019 14:00:00 17,0 11,0 5 3 - - 10
08.12.2019 13:00:00 17,0 10,4 5 3 W 1019,8 30
08.12.2019 12:00:00 18,0 11,0 5 3 NW - 10
08.12.2019 11:00:00 16,0 10,0 8 4 NW - 10
08.12.2019 10:00:00 14,0 10,2 9 5 WNW 1021,4 20
08.12.2019 09:00:00 12,0 10,0 9 5 NW - 10
08.12.2019 08:00:00 11,0 9,0 9 5 NW - 10
08.12.2019 07:00:00 10,8 9,2 13 7 NNW 1020,3 20
08.12.2019 06:00:00 - - - - - - -
08.12.2019 05:00:00 - - - - - - -
08.12.2019 04:00:00 - - - - - - -
08.12.2019 03:00:00 - - - - - - -
08.12.2019 02:00:00 - - - - - - -
08.12.2019 01:00:00 - - - - - - -
08.12.2019 00:00:00 - - - - - - -
07.12.2019 23:00:00 - - - - - - -
07.12.2019 22:00:00 - - - - - - -
07.12.2019 21:00:00 - - - - - - -
07.12.2019 20:00:00 - - - - - - -
07.12.2019 19:00:00 14,4 12,6 4 2 N 1019,3 10
07.12.2019 18:00:00 15,0 13,0 4 2 E - 10
07.12.2019 17:00:00 15,0 13,0 5 3 SSW - 10
07.12.2019 16:00:00 17,2 13,7 9 5 SE 1018,4 30
07.12.2019 15:00:00 17,0 14,0 11 6 S - 10
07.12.2019 14:00:00 18,0 12,0 4 2 - - 10
07.12.2019 13:00:00 17,8 10,7 4 2 N 1018,8 30
07.12.2019 12:00:00 18,0 11,0 11 6 W - 10
07.12.2019 11:00:00 16,0 13,0 9 5 NW - 10
07.12.2019 10:00:00 12,8 11,2 9 5 W 1020,2 20
07.12.2019 09:00:00 11,0 9,0 13 7 NW - 10
07.12.2019 08:00:00 10,0 8,0 5 3 NW - 10
07.12.2019 07:00:00 10,4 8,8 9 5 WNW 1020,0 20
07.12.2019 06:00:00 - - - - - - -
07.12.2019 05:00:00 - - - - - - -
07.12.2019 04:00:00 - - - - - - -
07.12.2019 03:00:00 - - - - - - -
07.12.2019 02:00:00 - - - - - - -
07.12.2019 01:00:00 - - - - - - -
07.12.2019 00:00:00 - - - - - - -
06.12.2019 23:00:00 - - - - - - -
06.12.2019 22:00:00 - - - - - - -
06.12.2019 21:00:00 - - - - - - -
06.12.2019 20:00:00 - - - - - - -
06.12.2019 19:00:00 13,8 11,9 9 5 WNW 1020,5 12
06.12.2019 18:00:00 14,0 12,0 8 4 NW - 8
06.12.2019 17:00:00 15,0 13,0 8 4 WNW - 8
06.12.2019 16:00:00 14,8 13,2 5 3 WNW 1021,4 8
06.12.2019 15:00:00 15,0 13,0 9 5 NW - 8
06.12.2019 14:00:00 15,0 13,0 9 5 W - 10
06.12.2019 13:00:00 15,2 13,4 8 4 WNW 1022,4 10
06.12.2019 12:00:00 15,0 13,0 8 4 WNW - 10
06.12.2019 11:00:00 14,0 12,0 8 4 NW - 10
06.12.2019 10:00:00 13,0 11,4 9 5 WNW 1019,3 10
06.12.2019 09:00:00 13,0 11,0 11 6 WNW - 10
06.12.2019 08:00:00 12,0 11,0 9 5 WNW - 10
06.12.2019 07:00:00 12,2 10,6 11 6 NW 1018,4 10
06.12.2019 06:00:00 - - - - - - -
06.12.2019 05:00:00 - - - - - - -
06.12.2019 04:00:00 - - - - - - -
06.12.2019 03:00:00 - - - - - - -
06.12.2019 02:00:00 - - - - - - -
06.12.2019 01:00:00 - - - - - - -
06.12.2019 00:00:00 - - - - - - -
05.12.2019 23:00:00 - - - - - - -
05.12.2019 22:00:00 - - - - - - -
05.12.2019 21:00:00 - - - - - - -
05.12.2019 20:00:00 - - - - - - -
05.12.2019 19:00:00 12,0 10,4 9 5 WNW 1023,6 5
05.12.2019 18:00:00 12,0 11,0 11 6 NW - 5
05.12.2019 17:00:00 12,0 10,0 13 7 NW - 5
05.12.2019 16:00:00 12,0 9,9 15 8 NW 1023,3 4,0
05.12.2019 15:00:00 12,0 10,0 13 7 WNW - 3,0
05.12.2019 14:00:00 12,0 10,0 13 7 NW - 3,0
05.12.2019 13:00:00 11,8 9,4 13 7 NW 1023,4 2,0
05.12.2019 12:00:00 11,0 8,0 13 7 NW - 3,0
05.12.2019 11:00:00 10,0 7,0 11 6 WNW - 5
05.12.2019 10:00:00 10,0 6,2 15 8 WNW 1023,6 12
05.12.2019 09:00:00 9,0 6,0 13 7 NW - 10
05.12.2019 08:00:00 8,0 5,0 15 8 WNW - 10

tt = temperature
td = dewpoint
ff = wind speed
dd = wind direction
ppp = reduced air pressure
vv = visibility

Next stations